Weather History for Sheridan, WY

Change the Weather History Date:

Friday, November 30, 2012

  Actual Average Record
Temperature  
Mean Temperature 37 °F 26 °F  
Max Temperature 50 °F 38 °F 71 °F (1999)
Min Temperature 23 °F 13 °F -15 °F (1975)
Degree Days  
Heating Degree Days 28 39  
Month to date heating degree days 910 972  
Since 1 July heating degree days 1684 1878  
Cooling Degree Days 0 0  
Month to date cooling degree days 0 0  
Year to date cooling degree days 664 419  
Moisture  
Dew Point 27 °F    
Average Humidity 73    
Maximum Humidity 92    
Minimum Humidity 53    
Precipitation  
Precipitation 0.00 in 0.02 in 0.65 in (1980)
Month to date precipitation 1.09 0.71  
Year to date precipitation 9.03 13.60  
Sea Level Pressure  
Sea Level Pressure 29.78 in    
Wind  
Wind Speed 3 mph (NE)    
Max Wind Speed 14 mph    
Max Gust Speed 16 mph    
Visibility 10 miles    
Events      
T = Trace of Precipitation, MM = Missing Value Source: NWS Daily Summary

Daily Weather History Graph

Daily Weather History Graph

Search for Another Location

Airport:

Trip Planner

Search our weather history database for the weather conditions in past years. The results will help you decide how hot, cold, wet, or windy it might be!

Date:

Astronomy

Nov. 30, 2012 Rise Set
Actual Time 7:24 AM MST 4:28 PM MST
Civil Twilight 6:51 AM MST 5:01 PM MST
Nautical Twilight 6:15 AM MST 5:38 PM MST
Astronomical Twilight 5:40 AM MST 6:13 PM MST
Moon 6:26 PM MST (11/30) 8:58 AM MST (11/30)
Length of Visible Light 10h 10m
Length of Day
9h 04m
Waning Gibbous, 96% of the Moon is Illuminated
Nov 30
Waning Gibbous
Dec 6
Last Quarter
Dec 13
New
Dec 19
First Quarter
Dec 28
Full

Hourly Weather History & Observations

Time (MST) Temp. Windchill Dew Point Humidity Pressure Visibility Wind Dir Wind Speed Gust Speed Precip Events Conditions
12:53 AM 30.9 °F 25.2 °F 25.0 °F 79% 29.92 in 10.0 mi West 5.8 mph - N/A   Clear
1:53 AM 28.0 °F 21.7 °F 24.1 °F 85% 29.91 in 10.0 mi North 5.8 mph - N/A   Clear
2:53 AM 27.0 °F - 23.0 °F 85% 29.91 in 10.0 mi Calm Calm - N/A   Clear
3:53 AM 26.1 °F 19.4 °F 23.0 °F 88% 29.89 in 10.0 mi NE 5.8 mph - N/A   Clear
4:53 AM 27.0 °F 23.0 °F 25.0 °F 92% 29.89 in 10.0 mi South 3.5 mph - N/A   Clear
5:53 AM 27.0 °F 20.5 °F 25.0 °F 92% 29.90 in 10.0 mi NNW 5.8 mph - N/A   Clear
6:53 AM 24.1 °F - 21.9 °F 91% 29.90 in 10.0 mi Calm Calm - N/A   Clear
7:53 AM 26.1 °F - 24.1 °F 92% 29.88 in 10.0 mi Calm Calm - N/A   Clear
8:53 AM 27.0 °F - 24.1 °F 89% 29.89 in 10.0 mi Calm Calm - N/A   Clear
9:53 AM 28.9 °F - 26.1 °F 89% 29.85 in 10.0 mi Calm Calm - N/A   Clear
1:08 PM 42.8 °F - 28.4 °F 57% 29.66 in 25.0 mi Calm Calm - N/A   Overcast
2:04 PM 46.4 °F 45.2 °F 30.2 °F 53% 29.64 in 25.0 mi North 3.5 mph - N/A   Mostly Cloudy
3:01 PM 41.0 °F 37.1 °F 30.2 °F 65% 29.63 in 25.0 mi SE 5.8 mph - N/A   Mostly Cloudy
4:01 PM 41.0 °F 38.0 °F 30.2 °F 65% 29.63 in 25.0 mi NE 4.6 mph - N/A   Mostly Cloudy
5:04 PM 37.4 °F 32.1 °F 28.4 °F 70% 29.64 in 20.0 mi SSE 6.9 mph - N/A   Mostly Cloudy
5:53 PM 36.0 °F 31.1 °F 28.9 °F 76% 29.72 in 10.0 mi South 5.8 mph - N/A   Partly Cloudy
6:02 PM 39.2 °F 37.0 °F 30.2 °F 70% 29.64 in 15.0 mi North 3.5 mph - N/A   Scattered Clouds
6:53 PM 35.6 °F - 28.4 °F 75% 29.65 in 10.0 mi Calm Calm - N/A   Clear
7:53 PM 37.0 °F 32.4 °F 28.9 °F 73% 29.74 in 10.0 mi SE 5.8 mph - N/A   Clear
8:53 PM 36.0 °F 32.1 °F 28.9 °F 76% 29.76 in 10.0 mi East 4.6 mph - N/A   Clear
9:53 PM 37.4 °F - 30.2 °F 75% 29.69 in 10.0 mi Calm Calm - N/A   Partly Cloudy
10:53 PM 37.0 °F 30.4 °F 30.9 °F 79% 29.75 in 10.0 mi North 9.2 mph - N/A   Scattered Clouds
11:53 PM 43.0 °F 40.3 °F 30.0 °F 60% 29.74 in 10.0 mi Variable 4.6 mph - N/A   Scattered Clouds